Location: Auckland
(36.8670°S, 174.7670°E)
Time: 16:40:32
(UTC+12:00)

Vanguard 2 Rocket - All Passes

Search period start: 24 July 2019 00:00
Search period end: 03 August 2019 00:00
Orbit: 554 x 3326 km, 32.9° (Epoch: 23 July)

Date Brightness Start Highest point End Pass type
(mag) Time Alt. Az. Time Alt. Az. Time Alt. Az.
24 Jul - 00:48:16 10° WNW 00:58:11 67° NNE 01:15:21 10° E visible
24 Jul - 03:01:21 10° W 03:14:49 76° N 03:35:01 10° ENE visible
24 Jul - 05:16:08 10° W 05:32:42 59° NNW 05:52:17 10° NE visible
24 Jul - 07:34:00 10° W 07:49:33 31° NW 08:04:38 10° NNE daylight
24 Jul - 21:40:44 10° N 21:45:23 18° NE 21:51:40 10° E night (unlit)
24 Jul - 23:49:26 10° NW 23:57:47 55° NNE 00:12:30 10° E visible
25 Jul - 02:01:42 10° W 02:13:18 76° N 02:32:23 10° E visible
25 Jul - 04:15:39 10° W 04:30:46 66° NNW 04:50:56 10° ENE visible
25 Jul - 06:31:51 10° W 06:48:08 40° NW 07:05:25 10° NNE visible
25 Jul - 08:56:25 10° WNW 09:03:45 13° NW 09:10:51 10° NNW daylight
25 Jul - 22:51:02 10° NW 22:57:59 41° NNE 23:09:46 10° E night (unlit)
26 Jul - 01:02:23 10° WNW 01:12:15 73° N 01:29:33 10° E visible
26 Jul - 03:15:38 10° W 03:28:58 72° NNW 03:48:57 10° ENE visible
26 Jul - 05:30:37 10° W 05:46:28 48° NNW 06:05:17 10° NE visible
26 Jul - 07:50:12 10° W 08:02:50 21° NW 08:15:23 10° N daylight
26 Jul - 21:53:11 10° NNW 21:58:41 27° NE 22:07:04 10° E night (unlit)
27 Jul - 00:03:24 10° WNW 00:11:44 65° NNE 00:26:44 10° E visible
27 Jul - 02:15:59 10° W 02:27:30 75° N 02:46:28 10° ENE visible
27 Jul - 04:30:02 10° W 04:44:43 57° NNW 05:04:17 10° NE visible
27 Jul - 06:47:05 10° W 07:01:36 29° NW 07:17:10 10° NNE visible
27 Jul - 20:56:29 10° NNE 20:59:45 14° NE 21:03:50 10° ENE night (unlit)
27 Jul - 23:04:45 10° NW 23:11:44 52° NNE 23:24:07 10° E night (unlit)
28 Jul - 01:16:38 10° W 01:26:26 75° N 01:43:42 10° E visible
28 Jul - 03:29:58 10° W 03:43:04 64° NNW 04:02:37 10° ENE visible
28 Jul - 05:45:23 10° W 06:00:09 38° NNW 06:17:38 10° NNE visible
28 Jul - 08:09:24 10° WNW 08:16:13 13° NW 08:23:05 10° NNW daylight
28 Jul - 22:06:27 10° NW 22:12:14 37° NNE 22:21:45 10° E night (unlit)
29 Jul - 00:17:34 10° WNW 00:25:51 71° N 00:40:56 10° E visible
29 Jul - 02:30:17 10° W 02:41:41 69° N 03:00:22 10° ENE visible
29 Jul - 04:44:34 10° W 04:58:35 46° NNW 05:17:08 10° NE visible
29 Jul - 07:03:29 10° W 07:15:07 20° NW 07:27:32 10° N daylight
29 Jul - 21:08:44 10° NNW 21:13:09 23° NE 21:19:30 10° E night (unlit)
29 Jul - 23:18:45 10° WNW 23:25:43 62° NNE 23:38:22 10° E night (unlit)
30 Jul - 01:30:55 10° W 01:40:40 73° N 01:57:46 10° ENE visible
30 Jul - 03:44:23 10° W 03:57:06 54° NNW 04:15:51 10° NE visible
30 Jul - 06:00:46 10° W 06:13:49 28° NW 06:29:05 10° NNE visible
30 Jul - 20:12:34 10° NNE 20:14:19 11° NE 20:16:17 10° ENE visible
30 Jul - 22:20:12 10° NW 22:26:02 49° NNE 22:36:09 10° E night (unlit)
31 Jul - 00:31:48 10° W 00:40:03 73° N 00:55:05 10° E visible
31 Jul - 02:44:38 10° W 02:55:49 60° NNW 03:13:58 10° ENE visible
31 Jul - 04:59:27 10° W 05:12:26 35° NNW 05:29:17 10° NNE visible
31 Jul - 07:23:35 10° WNW 07:28:46 12° NW 07:34:07 10° NNW daylight
31 Jul - 21:21:59 10° NNW 21:26:47 33° NNE 21:34:16 10° E night (unlit)
31 Jul - 23:32:55 10° WNW 23:39:51 69° N 23:52:35 10° E night (unlit)
01 Aug - 01:45:15 10° W 01:54:53 66° N 02:11:38 10° ENE visible
01 Aug - 03:58:59 10° W 04:11:06 42° NNW 04:28:33 10° NE visible
01 Aug - 06:17:28 10° WNW 06:27:34 18° NW 06:39:00 10° N visible
01 Aug - 20:24:19 10° N 20:27:49 20° NE 20:32:28 10° E visible
01 Aug - 22:34:14 10° WNW 22:40:04 59° NNE 22:50:25 10° E night (unlit)
02 Aug - 00:46:07 10° W 00:54:18 69° N 01:09:09 10° ENE visible
02 Aug - 02:59:06 10° W 03:09:56 50° NNW 03:27:07 10° NE visible
02 Aug - 05:15:01 10° W 05:26:19 25° NW 05:40:27 10° N visible
02 Aug - 21:35:44 10° NW 21:40:40 45° NNE 21:48:42 10° E night (unlit)
